STARLINK-4011 (52615 NORAD) Tracking and Keplerian Element Data

This shows tracking and keplerian element data for the satellite.

Feedback or suggestion? Click here.




ElementValue
Catalog52615
NameSTARLINK-4011
Epoch Orbit130
Epoch Day167.08334491
Epoch Year2022
RAAN282.7206
Inclination53.2175
Eccentricity0.0001171
Argument of Perigee70.8117
Mean Anonmoly16.4034
Mean Motion15.37175691
Decay Rate-0.00841731
L11 52615U 22052T 22167.08334491 -.00841731 00000+0 -24663-1 0 9997
L22 52615 53.2175 282.7206 0001171 70.8117 16.4034 15.37175691 1302

Live tracking and technical data element details for STARLINK-4011 (NORAD 52615). STARLINK-4011 can be tracked NOW for your location showing map with azimuth and elevation plus other details from your city location.

Track the satellite on the map from your city or location and see movement details for azimuth, elevation, latitude, longitude, range, height, and movement on the map or in text.







IsCatalogInMostPopularTable: catalog: 52615, numindb: 1
Update: records affected: 1



GetName: 52615 STARLINK-4011

Hit Count: updated at: Sat, 25 Jun 2022 05:19:48 GMT